Location: Bright Sky Observatory
(40.7821°N, 74.2425°W)
Time: 09:23:48
(UTC-04:00)

Amateur Radio Satellites - All Passes

Search period start: 22 September 2017 08:53
Search period end: 23 September 2017 08:53
Location: Bright Sky Observatory, 40.7821°N, 74.2425°W

Satellite Date Start Highest point End Downlink Frequencies (MHz)
Time Altitude Azimuth
XW-2A 22 Sep 09:07:36 09:10:50 39° 287° (WNW) 09:14:02 145.665 - 145.685
CUTE-I 22 Sep 09:10:28 09:12:37 12° 302° (WNW) 09:14:46 437.470
FO-29 22 Sep 09:18:32 09:24:23 90° 255° (WSW) 09:29:44 435.910
AO-73 22 Sep 09:23:35 09:28:12 79° 102° (ESE) 09:32:45 145.935
SEEDS 22 Sep 09:24:01 09:27:24 24° 291° (WNW) 09:30:45 437.485
Oscar 11 22 Sep 09:24:50 09:29:06 55° 100° (E) 09:33:20 .
ZACube-1 22 Sep 09:25:23 09:30:00 88° 291° (WNW) 09:34:34 437.345
RS-15 22 Sep 09:38:20 09:47:59 25° 341° (NNW) 09:57:31 29.354- 29.394
PRISM 22 Sep 09:44:10 09:47:42 29° 70° (ENE) 09:51:15 437.425
HO-68 22 Sep 09:47:24 09:53:19 29° 300° (WNW) 09:59:14 435.675
UNISAT 6 22 Sep 09:50:44 09:55:00 65° 74° (ENE) 09:59:23 437.425
Max Valier Satellite 22 Sep 09:51:31 09:53:54 16° 93° (E) 09:56:17 145.860
AAUSAT CUBESAT 2 22 Sep 09:51:46 09:55:11 26° 291° (WNW) 09:58:34 437.432
DELFI C3 22 Sep 10:00:24 10:03:50 28° 96° (E) 10:07:14 145.870
CUBEBUG 2 22 Sep 10:01:24 10:03:57 15° 296° (WNW) 10:06:29 437.445
UWE-3 22 Sep 10:11:18 10:14:28 18° 295° (WNW) 10:17:38 435.000/436.395/437.385
TIGRISAT 22 Sep 10:14:53 10:19:11 75° 258° (WSW) 10:23:37 435.000
DUCHIFAT 1 22 Sep 10:51:27 10:52:15 10° 62° (ENE) 10:53:02 145.980
EO-88 22 Sep 10:54:52 10:58:33 77° 101° (ESE) 11:02:11 145.990 - 145.960
AIST 2D 22 Sep 10:55:24 10:58:35 32° 72° (ENE) 11:01:48 435.315
POLYITAN 1 22 Sep 11:00:33 11:03:19 17° 65° (ENE) 11:06:07 437.675
AO-73 22 Sep 11:02:21 11:03:44 11° 298° (WNW) 11:05:07 145.935
Oscar 11 22 Sep 11:02:30 11:04:45 14° 296° (WNW) 11:06:59 .
EO-79 22 Sep 11:05:03 11:08:03 19° 66° (ENE) 11:11:04 145.935-145.965
FO-29 22 Sep 11:09:50 11:10:03 10° 270° (W) 11:10:17 435.910
QB50P2 22 Sep 11:17:21 11:20:58 28° 69° (ENE) 11:24:37 145.880/145.840
ESTCUBE 1 22 Sep 11:19:26 11:21:39 13° 91° (E) 11:23:51 437.505/2401.250
PRISM 22 Sep 11:19:45 11:22:58 22° 265° (W) 11:26:10 437.425
Max Valier Satellite 22 Sep 11:24:27 11:27:48 32° 288° (WNW) 11:31:08 145.860
UNISAT 6 22 Sep 11:31:06 11:32:11 11° 271° (W) 11:33:17 437.425
M-CUBED/EXP-1 PRIME 22 Sep 11:32:07 11:35:16 20° 63° (ENE) 11:38:16 437.505
DELFI C3 22 Sep 11:35:31 11:38:24 20° 292° (WNW) 11:41:17 145.870
NANOSAT C BR1 22 Sep 11:53:51 11:57:57 59° 74° (ENE) 12:02:06 145.865
LO-87 22 Sep 11:56:21 11:59:53 52° 100° (E) 12:03:25 145.935 - 145.965
RS-15 22 Sep 11:56:49 12:06:19 25° 18° (NNE) 12:15:29 29.354- 29.394
SPROUT 22 Sep 12:08:18 12:08:29 10° 89° (E) 12:08:39 437.525
YUBILEINY 22 Sep 12:09:36 12:17:38 44° 87° (E) 12:25:41 435.215
O/OREOS (USA 219) 22 Sep 12:12:14 12:16:25 33° 61° (ENE) 12:20:35 437.305
DUCHIFAT 1 22 Sep 12:23:09 12:27:18 72° 259° (W) 12:31:30 145.980
Gurwin Techsat 1B 22 Sep 12:26:30 12:29:01 14° 59° (ENE) 12:31:32 435.225
AIST 2D 22 Sep 12:29:54 12:31:52 14° 268° (W) 12:33:50 435.315
POLYITAN 1 22 Sep 12:34:49 12:38:46 40° 262° (W) 12:42:47 437.675
EO-79 22 Sep 12:39:42 12:43:33 35° 262° (W) 12:47:27 145.935-145.965
Oscar 19 22 Sep 12:51:13 12:55:47 32° 67° (ENE) 13:00:22 437.125/150
QB50P2 22 Sep 12:53:21 12:56:43 23° 265° (W) 13:00:08 145.880/145.840
ESTCUBE 1 22 Sep 12:54:23 12:58:47 56° 287° (WNW) 13:03:09 437.505/2401.250
BUGSAT 1 22 Sep 13:04:38 13:08:37 87° 79° (E) 13:12:42 437.445
M-CUBED/EXP-1 PRIME 22 Sep 13:05:26 13:09:28 37° 256° (WSW) 13:13:17 437.505
NO-84 22 Sep 13:13:32 13:17:08 35° 131° (SE) 13:20:28 435.350 FM
VELOX 1 22 Sep 13:29:49 13:34:11 63° 101° (ESE) 13:38:32 145.980
LO-87 22 Sep 13:32:29 13:32:50 10° 295° (WNW) 13:33:12 145.935 - 145.965
NANOSAT C BR1 22 Sep 13:32:51 13:34:02 11° 270° (W) 13:35:13 145.865
50 SAT 22 Sep 13:39:43 13:42:24 22° 96° (E) 13:45:03 437.505
SPROUT 22 Sep 13:40:31 13:44:48 68° 285° (WNW) 13:49:02 437.525
O/OREOS (USA 219) 22 Sep 13:51:58 13:55:39 24° 258° (WSW) 13:59:19 437.305
AO-7 22 Sep 13:58:25 14:05:01 27° 55° (NE) 14:11:37 .
Gurwin Techsat 1B 22 Sep 14:02:54 14:08:13 83° 256° (WSW) 14:13:34 435.225
SO-50 22 Sep 14:04:34 14:08:31 31° 114° (ESE) 14:12:29 436.795
YUBILEINY 22 Sep 14:06:24 14:14:27 40° 287° (WNW) 14:22:31 435.215
RS-15 22 Sep 14:10:24 14:22:16 58° 48° (NE) 14:33:27 29.354- 29.394
Oscar 19 22 Sep 14:30:27 14:35:02 31° 264° (W) 14:39:38 437.125/150
UKube-1 22 Sep 14:39:28 14:43:44 60° 101° (E) 14:47:58 .
DX 1 22 Sep 14:43:21 14:47:42 78° 284° (WNW) 14:52:00 434.975-435.025
NO-84 22 Sep 14:51:14 14:54:33 29° 326° (NW) 14:57:37 435.350 FM
PCSat 22 Sep 14:54:23 14:59:34 48° 113° (ESE) 15:04:47 145.827
BEESAT 22 Sep 14:59:30 15:01:12 12° 90° (E) 15:02:53 436.000
VELOX 1 22 Sep 15:08:10 15:10:05 13° 298° (WNW) 15:12:01 145.980
50 SAT 22 Sep 15:12:27 15:14:44 17° 292° (WNW) 15:17:00 437.505
ITAMSAT 1 22 Sep 15:31:25 15:36:33 69° 73° (ENE) 15:41:42 435.822/435.867
MOZHAYETS 4 22 Sep 15:41:12 15:45:24 33° 97° (E) 15:49:33
SO-50 22 Sep 15:44:58 15:48:56 30° 312° (NW) 15:52:55 436.795
AO-7 22 Sep 15:48:44 15:57:03 73° 254° (WSW) 16:05:24 .
ITUPSAT 1 22 Sep 15:57:06 16:01:46 46° 100° (E) 16:06:22 437.325
CUBESAT XI-V 22 Sep 16:05:45 16:07:33 12° 89° (E) 16:09:20 437.345
UKube-1 22 Sep 16:17:16 16:19:14 13° 297° (WNW) 16:21:11 .
DOVE 4 22 Sep 16:18:17 16:20:57 16° 66° (ENE) 16:23:32 437.250
RS-15 22 Sep 16:23:30 16:34:22 45° 252° (WSW) 16:44:45 29.354- 29.394
BEESAT 22 Sep 16:34:39 16:39:27 72° 286° (WNW) 16:44:13 436.000
PCSat 22 Sep 16:38:39 16:43:11 26° 311° (NW) 16:47:44 145.827
XW-2B 22 Sep 17:04:45 17:06:08 12° 64° (ENE) 17:07:29 145.730 - 145.750
XW-2F 22 Sep 17:05:57 17:07:12 11° 64° (ENE) 17:08:27 145.980 - 146.000
CUTE-I 22 Sep 17:11:44 17:15:23 19° 62° (ENE) 17:19:03 437.470
ITAMSAT 1 22 Sep 17:13:51 17:16:29 14° 269° (W) 17:19:07 435.822/435.867
MOZHAYETS 4 22 Sep 17:18:37 17:22:22 25° 293° (WNW) 17:26:07
XW-2C 22 Sep 17:24:22 17:27:12 20° 68° (ENE) 17:30:04 145.795 - 145.815
NUDT-PHONESAT 22 Sep 17:32:12 17:34:43 17° 67° (ENE) 17:37:14 437.300
LilacSat-2 22 Sep 17:34:32 17:37:51 28° 71° (ENE) 17:41:12 437.200
ITUPSAT 1 22 Sep 17:35:48 17:39:13 20° 296° (WNW) 17:42:39 437.325
CUBESAT XI-V 22 Sep 17:40:44 17:45:20 65° 286° (WNW) 17:49:54 437.345
KKS-1 22 Sep 17:47:19 17:51:39 50° 100° (E) 17:55:58 437.445
AO-7 22 Sep 17:47:51 17:51:07 13° 272° (W) 17:54:24 .
DOVE 4 22 Sep 17:54:00 17:58:19 46° 261° (W) 18:02:27 437.250
KAITUO 1B 22 Sep 17:57:30 18:00:59 35° 72° (ENE) 18:04:29 145.475/437.950
STARS 22 Sep 18:15:23 18:19:32 40° 99° (E) 18:23:41 437.465
XW-2D 22 Sep 18:23:39 18:27:29 73° 259° (W) 18:31:20 145.860 - 145.880
HO-68 22 Sep 18:27:18 18:33:53 42° 65° (ENE) 18:40:30 435.675
XW-2B 22 Sep 18:36:04 18:39:49 52° 260° (W) 18:43:36 145.730 - 145.750
XW-2F 22 Sep 18:37:05 18:40:49 53° 260° (W) 18:44:36 145.980 - 146.000
SEEDS 22 Sep 18:39:58 18:42:59 19° 67° (ENE) 18:46:00 437.485
CUTE-I 22 Sep 18:49:45 18:54:58 57° 259° (W) 19:00:12 437.470
XW-2C 22 Sep 18:57:52 19:01:12 28° 264° (W) 19:04:34 145.795 - 145.815
CUTE 1.7 + AOD 2 22 Sep 19:04:12 19:08:24 57° 74° (ENE) 19:12:37 437.475
NUDT-PHONESAT 22 Sep 19:04:59 19:08:20 31° 263° (W) 19:11:43 437.300
AAUSAT CUBESAT 2 22 Sep 19:06:47 19:09:26 17° 66° (ENE) 19:12:07 437.432
LilacSat-2 22 Sep 19:09:14 19:12:07 20° 266° (W) 19:15:01 437.200
CUBEBUG 2 22 Sep 19:20:57 19:25:00 47° 73° (ENE) 19:29:12 437.445
Tancredo 1 22 Sep 19:24:21 19:26:33 22° 135° (SE) 19:28:45 437.200
KKS-1 22 Sep 19:25:04 19:27:46 16° 296° (WNW) 19:30:30 437.445
UWE-3 22 Sep 19:30:35 19:34:28 34° 70° (ENE) 19:38:28 435.000/436.395/437.385
KAITUO 1B 22 Sep 19:32:51 19:35:05 15° 268° (W) 19:37:19 145.475/437.950
XW-2A 22 Sep 19:37:48 19:41:08 56° 75° (ENE) 19:44:30 145.665 - 145.685
NO-84 22 Sep 19:47:47 19:50:07 20° 30° (NNE) 19:52:21 435.350 FM
BEESAT 3 22 Sep 19:50:09 19:53:52 39° 116° (ESE) 19:57:39 437.485
STARS 22 Sep 19:52:28 19:55:34 19° 295° (WNW) 19:58:40 437.465
BEESAT 2 22 Sep 19:56:37 19:58:39 14° 109° (ESE) 20:00:43 435.950
SEEDS 22 Sep 20:14:28 20:18:24 36° 263° (W) 20:22:20 437.485
HO-68 22 Sep 20:15:04 20:21:35 38° 262° (W) 20:28:10 435.675
AO-73 22 Sep 20:18:20 20:22:34 56° 74° (ENE) 20:26:55 145.935
STRAND 1 22 Sep 20:18:24 20:23:32 63° 102° (ESE) 20:28:37 437.568
Oscar 11 22 Sep 20:19:02 20:23:06 40° 72° (ENE) 20:27:11 .
ZACube-1 22 Sep 20:20:25 20:24:41 67° 76° (ENE) 20:29:05 437.345
AAUSAT CUBESAT 2 22 Sep 20:40:37 20:44:34 41° 262° (W) 20:48:31 437.432
CUTE 1.7 + AOD 2 22 Sep 20:42:52 20:44:33 12° 270° (W) 20:46:15 437.475
DELFI C3 22 Sep 20:46:04 20:48:37 17° 67° (ENE) 20:51:12 145.870
ISS 22 Sep 20:54:03 20:56:59 31° 136° (SE) 20:59:56 437.550
Tancredo 1 22 Sep 20:58:33 21:00:59 29° 331° (NNW) 21:03:25 437.200
CUBEBUG 2 22 Sep 20:59:35 21:01:55 14° 270° (W) 21:04:17 437.445
UWE-3 22 Sep 21:07:51 21:11:01 20° 267° (W) 21:14:15 435.000/436.395/437.385
AO-85 22 Sep 21:10:23 21:14:16 85° 300° (WNW) 21:18:13 145.980
NO-84 22 Sep 21:24:50 21:27:33 34° 229° (SW) 21:30:10 435.350 FM
BEESAT 3 22 Sep 21:28:28 21:31:34 21° 314° (NW) 21:34:42 437.485
BEESAT 2 22 Sep 21:32:01 21:35:56 52° 306° (NW) 21:39:55 435.950
EO-88 22 Sep 21:32:10 21:35:24 30° 71° (ENE) 21:38:38 145.990 - 145.960
nSIGHT-1 22 Sep 21:35:16 21:38:29 86° 321° (NW) 21:41:45 .
UNISAT 6 22 Sep 21:43:40 21:46:22 15° 91° (E) 21:49:05 437.425
Oscar 11 22 Sep 21:56:27 21:59:23 18° 268° (W) 22:02:20 .
AO-73 22 Sep 21:57:15 21:59:10 13° 271° (W) 22:01:06 145.935
STRAND 1 22 Sep 21:58:58 22:02:10 17° 298° (WNW) 22:05:22 437.568
ZACube-1 22 Sep 22:00:39 22:01:27 10° 272° (W) 22:02:15 437.345
Max Valier Satellite 22 Sep 22:02:04 22:05:46 80° 259° (W) 22:09:31 145.860
TIGRISAT 22 Sep 22:06:46 22:10:35 24° 94° (E) 22:14:24 435.000
FO-29 22 Sep 22:11:25 22:16:54 81° 105° (ESE) 22:23:00 435.910
ESTCUBE 1 22 Sep 22:19:11 22:21:20 13° 62° (ENE) 22:23:29 437.505/2401.250
DELFI C3 22 Sep 22:19:27 22:23:06 36° 262° (W) 22:26:45 145.870
YUBILEINY 22 Sep 22:20:25 22:26:41 21° 64° (ENE) 22:32:55 435.215
ISS 22 Sep 22:30:26 22:33:26 32° 333° (NNW) 22:36:27 437.550
LO-87 22 Sep 22:32:37 22:35:14 20° 69° (ENE) 22:37:51 145.935 - 145.965
SO-50 22 Sep 22:35:32 22:39:32 29° 48° (NE) 22:43:35 436.795
Tancredo 1 22 Sep 22:36:02 22:36:11 10° 351° (N) 22:36:18 437.200
AO-85 22 Sep 22:54:32 22:55:20 10° 322° (NW) 22:56:07 145.980
PRISM 22 Sep 23:00:03 23:03:59 47° 100° (E) 23:07:53 437.425
EO-88 22 Sep 23:06:41 23:09:05 17° 267° (W) 23:11:31 145.990 - 145.960
nSIGHT-1 22 Sep 23:12:51 23:15:13 18° 342° (NNW) 23:17:35 .
UNISAT 6 22 Sep 23:18:47 23:23:22 55° 287° (WNW) 23:27:56 437.425
PCSat 22 Sep 23:42:25 23:47:29 38° 53° (NE) 23:52:29 145.827
TIGRISAT 22 Sep 23:43:05 23:47:17 34° 290° (WNW) 23:51:30 435.000
ESTCUBE 1 22 Sep 23:53:04 23:57:34 64° 259° (WSW) 00:02:05 437.505/2401.250
AIST 2D 22 Sep 23:53:15 23:56:36 40° 98° (E) 23:59:55 435.315
FO-29 22 Sep 23:58:40 00:01:27 14° 299° (WNW) 00:04:21 435.910
LO-87 23 Sep 00:05:40 00:08:30 23° 265° (W) 00:11:22 145.935 - 145.965
DUCHIFAT 1 23 Sep 00:08:04 00:11:01 18° 93° (E) 00:13:58 145.980
ISS 23 Sep 00:08:57 00:10:41 13° 352° (N) 00:12:25 437.550
Tancredo 1 23 Sep 00:11:07 00:11:41 10° 11° (N) 00:12:16 437.200
YUBILEINY 23 Sep 00:15:48 00:24:33 83° 265° (W) 00:33:18 435.215
SO-50 23 Sep 00:15:51 00:20:01 34° 245° (WSW) 00:24:13 436.795
POLYITAN 1 23 Sep 00:19:38 00:23:28 31° 97° (E) 00:27:17 437.675
EO-79 23 Sep 00:24:08 00:28:04 35° 97° (E) 00:31:59 145.935-145.965
VELOX 1 23 Sep 00:26:26 00:30:43 53° 73° (ENE) 00:35:00 145.980
SPROUT 23 Sep 00:33:00 00:37:13 86° 80° (E) 00:41:30 437.525
PRISM 23 Sep 00:36:40 00:38:50 14° 296° (WNW) 00:41:01 437.425
QB50P2 23 Sep 00:37:12 00:41:25 55° 100° (E) 00:45:37 145.880/145.840
BUGSAT 1 23 Sep 00:48:01 00:49:59 13° 91° (E) 00:51:56 437.445
nSIGHT-1 23 Sep 00:51:05 00:52:32 12° 2° (N) 00:54:00 .
Oscar 19 23 Sep 01:05:50 01:06:40 10° 88° (E) 01:07:29 437.125/150
NANOSAT C BR1 23 Sep 01:13:37 01:17:53 70° 284° (WNW) 01:22:07 145.865
PCSat 23 Sep 01:26:01 01:30:44 31° 251° (WSW) 01:35:26 145.827
AIST 2D 23 Sep 01:28:00 01:29:23 12° 294° (WNW) 01:30:47 435.315
UKube-1 23 Sep 01:33:19 01:37:27 48° 72° (ENE) 01:41:36 .
DX 1 23 Sep 01:38:08 01:42:29 87° 70° (ENE) 01:46:50 434.975-435.025
50 SAT 23 Sep 01:40:41 01:43:56 55° 260° (W) 01:47:12 437.505
DUCHIFAT 1 23 Sep 01:42:52 01:46:47 37° 289° (WNW) 01:50:43 145.980
Tancredo 1 23 Sep 01:44:20 01:46:51 33° 30° (NNE) 01:49:21 437.200
ISS 23 Sep 01:46:08 01:48:12 15° 13° (NNE) 01:50:16 437.550
POLYITAN 1 23 Sep 01:55:42 01:59:04 23° 293° (WNW) 02:02:25 437.675
EO-79 23 Sep 02:00:26 02:03:35 20° 293° (WNW) 02:06:44 145.935-145.965
VELOX 1 23 Sep 02:05:15 02:07:27 14° 269° (W) 02:09:41 145.980
BEESAT 23 Sep 02:05:24 02:08:00 15° 62° (ENE) 02:10:38 436.000
QB50P2 23 Sep 02:14:33 02:16:43 14° 296° (WNW) 02:18:53 145.880/145.840
YUBILEINY 23 Sep 02:15:24 02:19:53 15° 284° (WNW) 02:24:24 435.215
M-CUBED/EXP-1 PRIME 23 Sep 02:18:25 02:21:35 41° 292° (WNW) 02:24:39 437.505
Gurwin Techsat 1B 23 Sep 02:19:33 02:24:31 39° 98° (E) 02:29:28 435.225
BUGSAT 1 23 Sep 02:21:30 02:25:36 52° 287° (WNW) 02:29:42 437.445
O/OREOS (USA 219) 23 Sep 02:24:11 02:28:20 39° 106° (ESE) 02:32:34 437.305
nSIGHT-1 23 Sep 02:27:06 02:29:46 23° 22° (NNE) 02:32:26 .
Oscar 19 23 Sep 02:41:26 02:46:38 87° 285° (WNW) 02:51:46 437.125/150
MOZHAYETS 4 23 Sep 02:42:42 02:46:44 31° 69° (ENE) 02:50:48
ITUPSAT 1 23 Sep 03:03:21 03:07:59 53° 72° (ENE) 03:12:38 437.325
CUBESAT XI-V 23 Sep 03:08:57 03:11:07 13° 62° (ENE) 03:13:17 437.345
UKube-1 23 Sep 03:11:21 03:13:43 14° 268° (W) 03:16:05 .
Tancredo 1 23 Sep 03:19:11 03:21:13 19° 226° (SW) 03:23:15 437.200
ISS 23 Sep 03:22:03 03:25:16 50° 32° (NNE) 03:28:29 437.550
BEESAT 23 Sep 03:40:31 03:45:14 64° 258° (WSW) 03:49:59 436.000
ITAMSAT 1 23 Sep 03:45:04 03:49:15 24° 95° (E) 03:53:26 435.822/435.867
AO-7 23 Sep 03:50:53 03:58:31 39° 99° (E) 04:06:07 .
Gurwin Techsat 1B 23 Sep 03:59:53 04:04:15 27° 295° (WNW) 04:08:37 435.225
AO-85 23 Sep 04:02:38 04:04:09 11° 39° (NE) 04:05:41 145.980
nSIGHT-1 23 Sep 04:03:06 04:06:19 58° 220° (SW) 04:09:31 .
O/OREOS (USA 219) 23 Sep 04:04:27 04:07:53 21° 303° (WNW) 04:11:22 437.305
BEESAT 3 23 Sep 04:07:12 04:10:25 23° 47° (NE) 04:13:35 437.485
BEESAT 2 23 Sep 04:14:07 04:15:17 11° 39° (NE) 04:16:27 435.950
MOZHAYETS 4 23 Sep 04:20:01 04:23:51 26° 265° (W) 04:27:44
Oscar 19 23 Sep 04:23:29 04:25:07 11° 302° (WNW) 04:26:44 437.125/150
RS-15 23 Sep 04:33:35 04:44:05 36° 105° (ESE) 04:54:38 29.354- 29.394
ITUPSAT 1 23 Sep 04:43:11 04:46:06 16° 268° (W) 04:49:02 437.325
CUBESAT XI-V 23 Sep 04:43:12 04:47:53 70° 259° (WSW) 04:52:35 437.345
KKS-1 23 Sep 04:44:53 04:49:04 44° 71° (ENE) 04:53:17 437.445
ISS 23 Sep 04:59:09 05:01:30 18° 228° (SW) 05:03:50 437.550
STARS 23 Sep 05:11:36 05:15:32 34° 70° (ENE) 05:19:29 437.465
ITAMSAT 1 23 Sep 05:23:59 05:28:50 41° 291° (WNW) 05:33:41 435.822/435.867
AO-85 23 Sep 05:40:47 05:45:14 73° 57° (ENE) 05:50:02 145.980
AO-7 23 Sep 05:43:32 05:51:20 48° 297° (WNW) 05:59:09 .
BEESAT 3 23 Sep 05:44:27 05:48:02 33° 245° (WSW) 05:51:32 437.485
BEESAT 2 23 Sep 05:49:38 05:53:42 82° 58° (ENE) 05:57:42 435.950
DOVE 4 23 Sep 05:52:14 05:56:17 41° 99° (E) 06:00:28 437.250
XW-2D 23 Sep 05:58:20 05:59:42 12° 91° (E) 06:01:03 145.860 - 145.880
STRAND 1 23 Sep 05:59:13 06:00:40 11° 58° (ENE) 06:02:07 437.568
XW-2B 23 Sep 06:09:48 06:12:08 16° 92° (E) 06:14:28 145.730 - 145.750
XW-2F 23 Sep 06:10:26 06:12:40 15° 92° (E) 06:14:54 145.980 - 146.000
KKS-1 23 Sep 06:23:01 06:25:49 16° 267° (W) 06:28:38 437.445
XW-2C 23 Sep 06:30:18 06:33:37 28° 96° (E) 06:36:55 145.795 - 145.815
NUDT-PHONESAT 23 Sep 06:35:23 06:38:23 22° 95° (E) 06:41:21 437.300
LilacSat-2 23 Sep 06:41:31 06:45:11 42° 98° (E) 06:48:48 437.200
RS-15 23 Sep 06:43:26 06:55:42 71° 306° (NW) 07:08:03 29.354- 29.394
STARS 23 Sep 06:48:41 06:51:56 20° 266° (W) 06:55:12 437.465
KAITUO 1B 23 Sep 07:02:17 07:05:58 52° 99° (E) 07:09:36 145.475/437.950
CUTE-I 23 Sep 07:06:48 07:12:05 58° 101° (E) 07:17:20 437.470
CUBEBUG 2 23 Sep 07:13:44 07:15:21 12° 89° (E) 07:16:57 437.445
AO-85 23 Sep 07:23:10 07:25:11 13° 251° (WSW) 07:27:14 145.980
XW-2D 23 Sep 07:30:27 07:34:07 46° 286° (WNW) 07:37:44 145.860 - 145.880
DOVE 4 23 Sep 07:30:57 07:33:42 17° 293° (WNW) 07:36:30 437.250
STRAND 1 23 Sep 07:33:56 07:39:02 86° 74° (ENE) 07:44:10 437.568
AO-7 23 Sep 07:40:36 07:42:04 11° 319° (NW) 07:43:32 .
HO-68 23 Sep 07:42:13 07:49:02 44° 99° (E) 07:55:49 435.675
XW-2B 23 Sep 07:42:57 07:46:25 34° 288° (WNW) 07:49:51 145.730 - 145.750
XW-2F 23 Sep 07:43:26 07:46:55 35° 288° (WNW) 07:50:21 145.980 - 146.000
SEEDS 23 Sep 07:58:12 08:02:02 35° 97° (E) 08:05:51 437.485
XW-2C 23 Sep 08:04:50 08:07:36 19° 292° (WNW) 08:10:21 145.795 - 145.815
AO-73 23 Sep 08:08:27 08:10:11 12° 89° (E) 08:11:55 145.935
NUDT-PHONESAT 23 Sep 08:09:11 08:12:10 23° 291° (WNW) 08:15:06 437.300
ZACube-1 23 Sep 08:10:15 08:12:46 14° 90° (E) 08:15:16 437.345
LilacSat-2 23 Sep 08:17:04 08:19:05 14° 294° (WNW) 08:21:04 437.200
AAUSAT CUBESAT 2 23 Sep 08:22:51 08:26:27 29° 96° (E) 08:30:01 437.432
FO-29 23 Sep 08:24:32 08:29:28 31° 68° (ENE) 08:34:04 435.910
CUTE 1.7 + AOD 2 23 Sep 08:24:49 08:29:03 67° 284° (WNW) 08:33:13 437.475
XW-2A 23 Sep 08:32:03 08:35:28 62° 100° (E) 08:38:51 145.665 - 145.685
KAITUO 1B 23 Sep 08:38:25 08:39:29 11° 296° (WNW) 08:40:31 145.475/437.950
UNISAT 6 23 Sep 08:43:20 08:45:11 13° 62° (ENE) 08:47:03 437.425
